This demonstration page uses our WeatherBlox Daily Observations layout. Learn more.

Left ArrowRight Arrow

39.01783, -85.05884

Hourly Observations for June 28, 2017

Temp ( °F °C ) Dew Point ( °F °C ) Humidity (%) Winds ( mph kmh ) Pressure ( in mb ) Visibility ( mi km ) Precip ( " mm )
12:52 am 00:52 Clear 58 14.4 52 11.1 81 81 N N/A 30.12 1020 10 16 N/A
1:52 am 01:52 Mostly Clear 55 12.8 54 12.2 96 96 S 3 6 30.11 1020 10 16 N/A
2:52 am 02:52 Clear 55 12.8 54 12.2 96 96 N N/A 30.11 1020 10 16 N/A
3:52 am 03:52 Clear 55 12.8 54 12.2 96 96 N N/A 30.12 1020 10 16 N/A
4:52 am 04:52 Clear 53 11.7 50 10 89 89 N N/A 30.11 1020 10 16 N/A
5:52 am 05:52 Clear 56 13.3 51 10.6 84 84 SSE 5 7 30.09 1019 10 16 N/A
6:52 am 06:52 Mostly Sunny 58 14.4 50 10 75 75 N N/A 30.14 1021 10 16 N/A
7:52 am 07:52 Mostly Cloudy 63 17.2 52 11.1 68 68 N N/A 30.13 1020 10 16 N/A
8:52 am 08:52 Mostly Cloudy 66 18.9 55 12.8 68 68 SSE 9 15 30.14 1021 10 16 N/A
9:52 am 09:52 Mostly Cloudy 70 21.1 55 12.8 59 59 S 9 15 30.15 1021 10 16 N/A
10:52 am 10:52 Mostly Cloudy 73 22.8 56 13.3 55 55 SSW 13 20 30.14 1021 10 16 N/A
11:52 am 11:52 Mostly Cloudy 75 23.9 55 12.8 50 50 S 13 20 30.14 1021 10 16 N/A
12:52 pm 12:52 Mostly Cloudy 75 23.9 55 12.8 50 50 SSW 12 19 30.14 1021 10 16 N/A
1:52 pm 13:52 Partly Cloudy 77 25 55 12.8 47 47 SSW 13 20 30.12 1020 10 16 N/A
2:52 pm 14:52 Partly Cloudy 78 25.6 56 13.3 47 47 S 9 15 30.09 1019 10 16 N/A
3:52 pm 15:52 Mostly Cloudy 79 26.1 56 13.3 45 45 S 17 28 30.07 1018 10 16 N/A
4:52 pm 16:52 Mostly Cloudy 79 26.1 57 13.9 47 47 S 10 17 30.05 1018 10 16 N/A
5:52 pm 17:52 Mostly Cloudy 77 25 55 12.8 47 47 SSW 9 15 30.03 1017 10 16 N/A
6:52 pm 18:52 Mostly Cloudy 78 25.6 56 13.3 47 47 S 14 22 30.01 1016 10 16 N/A
7:52 pm 19:52 Mostly Cloudy 76 24.4 58 14.4 54 54 S 7 11 30.01 1016 10 16 N/A
8:52 pm 20:52 Mostly Cloudy 71 21.7 58 14.4 63 63 S 7 11 30.00 1016 10 16 N/A
9:52 pm 21:52 Mostly Cloudy 71 21.7 57 13.9 61 61 SSW 7 11 29.98 1015 10 16 N/A
10:52 pm 22:52 Cloudy 69 20.6 58 14.4 68 68 S 6 9 30.00 1016 10 16 N/A
11:52 pm 23:52 Cloudy 65 18.3 58 14.4 78 78 S 7 11 30.01 1016 10 16 N/A

Powered by AerisWeather